Change the Weather History Date:

Thursday, September 12, 2013

  Actual Average (KLSE) Record (KLSE)
Temperature  
Mean Temperature 60 °F 64 °F  
Max Temperature 75 °F 75 °F 92 °F (1998)
Min Temperature 48 °F 54 °F 35 °F (1955)
Degree Days  
Heating Degree Days 4 3  
Month to date heating degree days 26  
Since 1 July heating degree days 46  
Cooling Degree Days 0 3  
Month to date cooling degree days 46  
Year to date cooling degree days 746  
Growing Degree Days 10 (Base 50)    
Moisture  
Dew Point 47 °F    
Average Humidity 64    
Maximum Humidity 100    
Minimum Humidity 31    
Precipitation  
Precipitation 0.00 in 0.13 in 2.12 in (1972)
Month to date precipitation 1.49  
Year to date precipitation 25.45  
Snow  
Snow 0.00 in 0.00 in 0.00 in (2002)
Month to date snowfall 0.0  
Since 1 July snowfall 0.0  
Snow Depth -    
Sea Level Pressure  
Sea Level Pressure 30.10 in    
Wind  
Wind Speed 5 mph (NNW)    
Max Wind Speed 15 mph    
Max Gust Speed 22 mph    
Visibility 10 miles    
Events      
T = Trace of Precipitation, MM = Missing Value Source: NWS Daily Summary

Daily Weather History Graph

Daily Weather History Graph

Search for Another Location

Airport or City:

Trip Planner

Search our weather history database for the weather conditions in past years. The results will help you decide how hot, cold, wet, or windy it might be!

Date:

Astronomy

Sep. 12, 2013 Rise Set
Actual Time 6:39 AM CDT 7:19 PM CDT
Civil Twilight 6:10 AM CDT 7:48 PM CDT
Nautical Twilight 5:35 AM CDT 8:22 PM CDT
Astronomical Twilight 4:59 AM CDT 8:58 PM CDT
Moon 2:21 PM CDT (9/12) No Moon Set
Length of Visible Light 13h 38m
Length of Day
12h 39m
Waxing Crescent, 50% of the Moon is Illuminated
Sep 12
Waxing Crescent
Sep 12
First Quarter
Sep 19
Full
Sep 26
Last Quarter
Oct 4
New

Hourly Weather History & Observations

Time (CDT) Temp. Dew Point Humidity Pressure Visibility Wind Dir Wind Speed Gust Speed Precip Events Conditions
12:15 AM 53.2 °F 48.7 °F 85% 30.00 in 10.0 mi Calm Calm - N/A   Clear
12:35 AM 53.8 °F 50.7 °F 89% 29.99 in 10.0 mi Calm Calm - N/A   Clear
12:55 AM 54.9 °F 50.9 °F 86% 29.99 in 10.0 mi South 3.5 mph - N/A   Clear
1:15 AM 53.2 °F 49.8 °F 88% 29.99 in 10.0 mi Calm Calm - N/A   Clear
1:35 AM 51.8 °F 49.6 °F 92% 29.99 in 10.0 mi Calm Calm - N/A   Clear
1:55 AM 51.1 °F 50.5 °F 98% 29.99 in 10.0 mi Calm Calm - N/A   Clear
2:15 AM 50.4 °F 49.3 °F 96% 29.99 in 10.0 mi Calm Calm - N/A   Clear
2:35 AM 50.4 °F 49.8 °F 98% 29.99 in 10.0 mi Calm Calm - N/A   Clear
2:55 AM 49.1 °F 48.9 °F 99% 29.99 in 10.0 mi Calm Calm - N/A   Clear
3:15 AM 48.4 °F 47.8 °F 98% 30.00 in 10.0 mi Calm Calm - N/A   Clear
3:35 AM 48.6 °F 48.6 °F 100% 30.00 in 10.0 mi Calm Calm - N/A   Clear
3:55 AM 56.5 °F 53.2 °F 89% 30.00 in 10.0 mi WNW 5.8 mph - N/A   Clear
4:15 AM 60.8 °F 51.1 °F 70% 30.01 in 10.0 mi WNW 9.2 mph - N/A   Clear
4:35 AM 60.4 °F 51.3 °F 72% 30.02 in 10.0 mi NW 8.1 mph - N/A   Clear
4:55 AM 59.9 °F 51.6 °F 74% 30.03 in 10.0 mi NNW 5.8 mph - N/A   Clear
5:15 AM 59.7 °F 52.3 °F 77% 30.04 in 10.0 mi NNW 9.2 mph - N/A   Clear
5:35 AM 59.0 °F 53.2 °F 81% 30.05 in 10.0 mi NW 8.1 mph - N/A   Clear
5:55 AM 58.5 °F 53.8 °F 84% 30.06 in 10.0 mi NNW 5.8 mph - N/A   Scattered Clouds
6:15 AM 57.7 °F 54.9 °F 90% 30.06 in 10.0 mi NNW 4.6 mph - N/A   Mostly Cloudy
6:35 AM 57.7 °F 55.9 °F 94% 30.07 in 10.0 mi NNW 4.6 mph - N/A   Overcast
6:55 AM 57.6 °F 56.1 °F 95% 30.07 in 10.0 mi NNW 4.6 mph - N/A   Mostly Cloudy
7:15 AM 57.2 °F 56.3 °F 97% 30.08 in 10.0 mi NW 4.6 mph - N/A   Scattered Clouds
7:35 AM 58.1 °F 56.1 °F 93% 30.08 in 10.0 mi NNW 6.9 mph - N/A   Scattered Clouds
7:55 AM 59.5 °F 54.3 °F 83% 30.09 in 10.0 mi NNW 6.9 mph - N/A   Scattered Clouds
8:15 AM 60.3 °F 53.6 °F 79% 30.09 in 10.0 mi NNW 9.2 mph - N/A   Scattered Clouds
8:35 AM 60.8 °F 53.1 °F 76% 30.09 in 10.0 mi North 6.9 mph - N/A   Mostly Cloudy
8:55 AM 61.7 °F 52.9 °F 73% 30.11 in 10.0 mi North 10.4 mph - N/A   Overcast
9:15 AM 61.0 °F 52.0 °F 72% 30.12 in 10.0 mi North 10.4 mph - N/A   Overcast
9:35 AM 61.0 °F 51.3 °F 70% 30.13 in 10.0 mi North 10.4 mph 16.1 mph N/A   Overcast
9:55 AM 60.8 °F 50.7 °F 69% 30.13 in 10.0 mi North 10.4 mph - N/A   Overcast
10:15 AM 61.7 °F 51.3 °F 69% 30.14 in 10.0 mi North 10.4 mph - N/A   Overcast
10:35 AM 61.5 °F 50.4 °F 67% 30.15 in 10.0 mi North 12.7 mph - N/A   Overcast
10:55 AM 62.1 °F 50.4 °F 65% 30.15 in 10.0 mi NNW 11.5 mph - N/A   Overcast
11:15 AM 62.6 °F 50.0 °F 63% 30.14 in 10.0 mi North 10.4 mph 16.1 mph N/A   Mostly Cloudy
11:35 AM 62.8 °F 49.1 °F 61% 30.15 in 10.0 mi NNW 11.5 mph - N/A   Mostly Cloudy
11:55 AM 65.3 °F 49.3 °F 56% 30.15 in 10.0 mi North 10.4 mph 17.3 mph N/A   Mostly Cloudy
12:15 PM 64.9 °F 49.5 °F 57% 30.15 in 10.0 mi NNW 10.4 mph 18.4 mph N/A   Mostly Cloudy
12:35 PM 65.3 °F 49.1 °F 56% 30.14 in 10.0 mi NNW 8.1 mph - N/A   Mostly Cloudy
12:55 PM 67.3 °F 47.8 °F 50% 30.14 in 10.0 mi NNW 9.2 mph 18.4 mph N/A   Mostly Cloudy
1:15 PM 68.0 °F 47.3 °F 47% 30.13 in 10.0 mi NNW 9.2 mph 21.9 mph N/A   Mostly Cloudy
1:35 PM 70.2 °F 46.4 °F 43% 30.13 in 10.0 mi North 13.8 mph 20.7 mph N/A   Mostly Cloudy
1:55 PM 70.9 °F 45.0 °F 39% 30.13 in 10.0 mi NW 12.7 mph 18.4 mph N/A   Mostly Cloudy
2:15 PM 68.9 °F 45.3 °F 43% 30.13 in 10.0 mi NNW 11.5 mph 16.1 mph N/A   Mostly Cloudy
2:35 PM 72.0 °F 44.1 °F 37% 30.12 in 10.0 mi NW 8.1 mph 18.4 mph N/A   Scattered Clouds
2:55 PM 73.8 °F 43.3 °F 34% 30.11 in 10.0 mi NW 12.7 mph 19.6 mph N/A   Mostly Cloudy
3:15 PM 73.8 °F 42.8 °F 33% 30.10 in 10.0 mi NW 12.7 mph 20.7 mph N/A   Mostly Cloudy
3:35 PM 73.4 °F 42.8 °F 33% 30.11 in 10.0 mi NW 15.0 mph 20.7 mph N/A   Scattered Clouds
3:55 PM 72.9 °F 41.7 °F 33% 30.10 in 10.0 mi NW 13.8 mph 20.7 mph N/A   Scattered Clouds
4:15 PM 70.9 °F 41.0 °F 34% 30.10 in 10.0 mi North 11.5 mph - N/A   Scattered Clouds
4:35 PM 70.5 °F 41.4 °F 35% 30.11 in 10.0 mi NW 9.2 mph 16.1 mph N/A   Clear
4:55 PM 72.0 °F 41.4 °F 33% 30.11 in 10.0 mi NNW 10.4 mph 17.3 mph N/A   Clear
5:15 PM 73.0 °F 40.5 °F 31% 30.11 in 10.0 mi NW 10.4 mph - N/A   Scattered Clouds
5:35 PM 72.1 °F 41.0 °F 32% 30.11 in 10.0 mi North 12.7 mph 18.4 mph N/A   Mostly Cloudy
5:55 PM 68.2 °F 40.6 °F 37% 30.11 in 10.0 mi NNW 9.2 mph 18.4 mph N/A   Scattered Clouds
6:15 PM 69.8 °F 41.0 °F 35% 30.11 in 10.0 mi North 10.4 mph 18.4 mph N/A   Clear
6:35 PM 68.5 °F 41.9 °F 38% 30.12 in 10.0 mi North 11.5 mph - N/A   Clear
6:55 PM 67.3 °F 42.6 °F 41% 30.13 in 10.0 mi North 8.1 mph - N/A   Clear
7:15 PM 66.2 °F 42.4 °F 42% 30.13 in 10.0 mi North 5.8 mph - N/A   Clear
7:35 PM 64.9 °F 42.6 °F 44% 30.14 in 10.0 mi North 6.9 mph - N/A   Clear
7:55 PM 63.9 °F 42.8 °F 46% 30.14 in 10.0 mi North 6.9 mph - N/A   Clear
8:15 PM 62.4 °F 42.8 °F 49% 30.15 in 10.0 mi North 5.8 mph - N/A   Clear
8:35 PM 60.4 °F 42.8 °F 52% 30.16 in 10.0 mi NNE 4.6 mph - N/A   Clear
8:55 PM 59.9 °F 43.0 °F 54% 30.16 in 10.0 mi North 4.6 mph - N/A   Clear
9:15 PM 58.6 °F 43.2 °F 56% 30.17 in 10.0 mi NNE 3.5 mph - N/A   Clear
9:35 PM 57.2 °F 43.2 °F 59% 30.17 in 10.0 mi North 3.5 mph - N/A   Clear
9:55 PM 57.4 °F 43.0 °F 59% 30.18 in 10.0 mi North 3.5 mph - N/A   Clear
10:15 PM 56.7 °F 42.8 °F 60% 30.18 in 10.0 mi North 3.5 mph - N/A   Clear
10:35 PM 56.1 °F 43.0 °F 61% 30.19 in 10.0 mi NNE 5.8 mph - N/A   Clear
10:55 PM 55.8 °F 43.2 °F 63% 30.19 in 10.0 mi NNE 5.8 mph - N/A   Clear
11:15 PM 54.9 °F 43.3 °F 65% 30.20 in 10.0 mi NNE 4.6 mph - N/A   Clear
11:35 PM 53.4 °F 43.3 °F 69% 30.21 in 10.0 mi North 5.8 mph - N/A   Clear
11:55 PM 52.5 °F 43.3 °F 71% 30.21 in 10.0 mi NNE 4.6 mph - N/A   Clear